owner,sensor,date,latitude,longitude,vertical_datum,direction_of_sea_water_velocity,sea_water_speed,upward_sea_water_velocity,qcFlag 
TABS,ioos:station:wmo:42046:1,1999-04-01T00:00:00Z,27.8903,-94.0367,2.0,117.8875973,31.00016129,-99999.0,'11111222,11111222,99999999' 
TABS,ioos:station:wmo:42046:1,1999-04-01T00:30:00Z,27.8903,-94.0367,2.0,116.8752513,24.77599645,-99999.0,'11111222,11111222,99999999' 
TABS,ioos:station:wmo:42046:1,1999-04-01T01:00:00Z,27.8903,-94.0367,2.0,116.7540829,27.10129148,-99999.0,'11111222,11111222,99999999' 
TABS,ioos:station:wmo:42046:1,1999-04-01T01:30:00Z,27.8903,-94.0367,2.0,120.6943764,29.18938163,-99999.0,'11111222,11111222,99999999' 
TABS,ioos:station:wmo:42046:1,1999-04-01T02:00:00Z,27.8903,-94.0367,2.0,109.2158389,25.52195134,-99999.0,'11111222,11111222,99999999' 
TABS,ioos:station:wmo:42046:1,1999-04-01T02:30:00Z,27.8903,-94.0367,2.0,106.9528968,28.1220554,-99999.0,'11111222,11111222,99999999' 
TABS,ioos:station:wmo:42046:1,1999-04-01T03:00:00Z,27.8903,-94.0367,2.0,110.7722061,24.81289987,-99999.0,'11111222,11111222,99999999' 
TABS,ioos:station:wmo:42046:1,1999-04-01T03:30:00Z,27.8903,-94.0367,2.0,115.8954544,26.78992348,-99999.0,'11111222,11111222,99999999' 
TABS,ioos:station:wmo:42046:1,1999-04-01T04:00:00Z,27.8903,-94.0367,2.0,108.1130235,22.51577225,-99999.0,'11111222,11111222,99999999' 
TABS,ioos:station:wmo:42046:1,1999-04-01T04:30:00Z,27.8903,-94.0367,2.0,101.6592654,25.73091526,-99999.0,'11111222,11111222,99999999' 
TABS,ioos:station:wmo:42046:1,1999-04-01T05:00:00Z,27.8903,-94.0367,2.0,98.7948764,26.81529414,-99999.0,'11111222,11111222,99999999' 
TABS,ioos:station:wmo:42046:1,1999-04-01T05:30:00Z,27.8903,-94.0367,2.0,103.1725226,19.30802942,-99999.0,'11111222,11111222,99999999' 
TABS,ioos:station:wmo:42046:1,1999-04-01T06:00:00Z,27.8903,-94.0367,2.0,97.43139059,20.87534431,-99999.0,'11111222,11111222,99999999' 
TABS,ioos:station:wmo:42046:1,1999-04-01T06:30:00Z,27.8903,-94.0367,2.0,94.70784124,17.05754965,-99999.0,'11111222,11111222,99999999' 
TABS,ioos:station:wmo:42046:1,1999-04-01T07:00:00Z,27.8903,-94.0367,2.0,101.5138043,22.04359317,-99999.0,'11111222,11111222,99999999' 
TABS,ioos:station:wmo:42046:1,1999-04-01T07:30:00Z,27.8903,-94.0367,2.0,108.3443913,20.01724257,-99999.0,'11111222,11111222,99999999' 
TABS,ioos:station:wmo:42046:1,1999-04-01T08:00:00Z,27.8903,-94.0367,2.0,96.38154561,15.29477035,-99999.0,'11111222,11111222,99999999' 
TABS,ioos:station:wmo:42046:1,1999-04-01T08:30:00Z,27.8903,-94.0367,2.0,91.35318879,12.70354281,-99999.0,'11111222,11111222,99999999' 
TABS,ioos:station:wmo:42046:1,1999-04-01T09:00:00Z,27.8903,-94.0367,2.0,106.8213706,17.96886196,-99999.0,'11111222,11111222,99999999' 
TABS,ioos:station:wmo:42046:1,1999-04-01T09:30:00Z,27.8903,-94.0367,2.0,115.4268147,20.26277375,-99999.0,'11111222,11111222,99999999' 
TABS,ioos:station:wmo:42046:1,1999-04-01T10:00:00Z,27.8903,-94.0367,2.0,121.0398751,25.79341001,-99999.0,'11111222,11111222,99999999' 
TABS,ioos:station:wmo:42046:1,1999-04-01T10:30:00Z,27.8903,-94.0367,2.0,105.3061032,19.69873092,-99999.0,'11111222,11111222,99999999' 
TABS,ioos:station:wmo:42046:1,1999-04-01T11:00:00Z,27.8903,-94.0367,2.0,120.7223391,20.35706266,-99999.0,'11111222,11111222,99999999' 
TABS,ioos:station:wmo:42046:1,1999-04-01T11:30:00Z,27.8903,-94.0367,2.0,114.8292885,22.14723459,-99999.0,'11111222,11111222,99999999' 
TABS,ioos:station:wmo:42046:1,1999-04-01T12:00:00Z,27.8903,-94.0367,2.0,106.7938695,23.18900602,-99999.0,'11111222,11111222,99999999' 
TABS,ioos:station:wmo:42046:1,1999-04-01T12:30:00Z,27.8903,-94.0367,2.0,102.4677932,20.38062806,-99999.0,'11111222,11111222,99999999' 
TABS,ioos:station:wmo:42046:1,1999-04-01T13:00:00Z,27.8903,-94.0367,2.0,101.2472879,17.94463708,-99999.0,'11111222,11111222,99999999' 
TABS,ioos:station:wmo:42046:1,1999-04-01T13:30:00Z,27.8903,-94.0367,2.0,105.9453586,23.29635165,-99999.0,'11111222,11111222,99999999' 
TABS,ioos:station:wmo:42046:1,1999-04-01T14:00:00Z,27.8903,-94.0367,2.0,103.626963,20.37351222,-99999.0,'11111222,11111222,99999999' 
TABS,ioos:station:wmo:42046:1,1999-04-01T14:30:00Z,27.8903,-94.0367,2.0,94.11489948,27.8718496,-99999.0,'11111222,11111222,99999999' 
TABS,ioos:station:wmo:42046:1,1999-04-01T15:00:00Z,27.8903,-94.0367,2.0,95.31453324,25.91138746,-99999.0,'11111222,11111222,99999999' 
TABS,ioos:station:wmo:42046:1,1999-04-01T15:30:00Z,27.8903,-94.0367,2.0,89.36340791,27.00166662,-99999.0,'11111222,11111222,99999999' 
TABS,ioos:station:wmo:42046:1,1999-04-01T16:00:00Z,27.8903,-94.0367,2.0,90.44761312,25.60078124,-99999.0,'11111222,11111222,99999999' 
TABS,ioos:station:wmo:42046:1,1999-04-01T16:30:00Z,27.8903,-94.0367,2.0,85.18646036,28.60087411,-99999.0,'11111222,11111222,99999999' 
TABS,ioos:station:wmo:42046:1,1999-04-01T17:00:00Z,27.8903,-94.0367,2.0,108.159448,39.46568129,-99999.0,'11111222,11111222,99999999' 
TABS,ioos:station:wmo:42046:1,1999-04-01T17:30:00Z,27.8903,-94.0367,2.0,100.1308643,32.40524649,-99999.0,'11111222,11111222,99999999' 
TABS,ioos:station:wmo:42046:1,1999-04-01T18:00:00Z,27.8903,-94.0367,2.0,97.87564331,35.03041536,-99999.0,'11111222,11111222,99999999' 
TABS,ioos:station:wmo:42046:1,1999-04-01T18:30:00Z,27.8903,-94.0367,2.0,95.98493832,37.4038768,-99999.0,'11111222,11111222,99999999' 
TABS,ioos:station:wmo:42046:1,1999-04-01T19:00:00Z,27.8903,-94.0367,2.0,95.65620241,31.45313975,-99999.0,'11111222,11111222,99999999' 
TABS,ioos:station:wmo:42046:1,1999-04-01T19:30:00Z,27.8903,-94.0367,2.0,104.3982116,42.22629513,-99999.0,'11111222,11111222,99999999' 
TABS,ioos:station:wmo:42046:1,1999-04-01T20:00:00Z,27.8903,-94.0367,2.0,103.2579865,37.49946666,-99999.0,'11111222,11111222,99999999' 
TABS,ioos:station:wmo:42046:1,1999-04-01T20:30:00Z,27.8903,-94.0367,2.0,96.35726479,37.02769234,-99999.0,'11111222,11111222,99999999' 
TABS,ioos:station:wmo:42046:1,1999-04-01T21:00:00Z,27.8903,-94.0367,2.0,105.4441769,34.54750353,-99999.0,'11111222,11111222,99999999' 
TABS,ioos:station:wmo:42046:1,1999-04-01T21:30:00Z,27.8903,-94.0367,2.0,107.8416288,42.75628609,-99999.0,'11111222,11111222,99999999' 
TABS,ioos:station:wmo:42046:1,1999-04-01T22:00:00Z,27.8903,-94.0367,2.0,111.712574,35.95066063,-99999.0,'11111222,11111222,99999999' 
TABS,ioos:station:wmo:42046:1,1999-04-01T22:30:00Z,27.8903,-94.0367,2.0,98.81520041,37.84706065,-99999.0,'11111222,11111222,99999999' 
TABS,ioos:station:wmo:42046:1,1999-04-01T23:00:00Z,27.8903,-94.0367,2.0,108.9323298,40.06756793,-99999.0,'11111222,11111222,99999999' 
TABS,ioos:station:wmo:42046:1,1999-04-01T23:30:00Z,27.8903,-94.0367,2.0,122.9907631,36.36330568,-99999.0,'11111222,11111222,99999999' 
TABS,ioos:station:wmo:42046:1,1999-04-02T00:00:00Z,27.8903,-94.0367,2.0,125.1185118,33.37558988,-99999.0,'11111222,11111222,99999999' 
TABS,ioos:station:wmo:42046:1,1999-04-02T00:30:00Z,27.8903,-94.0367,2.0,117.6519412,40.07754983,-99999.0,'11111222,11111222,99999999' 
TABS,ioos:station:wmo:42046:1,1999-04-02T01:00:00Z,27.8903,-94.0367,2.0,120.6949728,32.91094043,-99999.0,'11111222,11111222,99999999' 
TABS,ioos:station:wmo:42046:1,1999-04-02T01:30:00Z,27.8903,-94.0367,2.0,125.1600014,33.51492205,-99999.0,'11111222,11111222,99999999' 
TABS,ioos:station:wmo:42046:1,1999-04-02T02:00:00Z,27.8903,-94.0367,2.0,135.4998441,40.51876109,-99999.0,'11111222,11111222,99999999' 
TABS,ioos:station:wmo:42046:1,1999-04-02T02:30:00Z,27.8903,-94.0367,2.0,135.588528,41.2972154,-99999.0,'11111222,11111222,99999999' 
TABS,ioos:station:wmo:42046:1,1999-04-02T03:00:00Z,27.8903,-94.0367,2.0,126.3915047,33.54116873,-99999.0,'11111222,11111222,99999999' 
TABS,ioos:station:wmo:42046:1,1999-04-02T03:30:00Z,27.8903,-94.0367,2.0,140.4740102,34.0966274,-99999.0,'11111222,11111222,99999999' 
TABS,ioos:station:wmo:42046:1,1999-04-02T04:00:00Z,27.8903,-94.0367,2.0,145.2936839,32.84341639,-99999.0,'11111222,11111222,99999999' 
TABS,ioos:station:wmo:42046:1,1999-04-02T04:30:00Z,27.8903,-94.0367,2.0,135.776211,26.09463546,-99999.0,'11111222,11111222,99999999' 
TABS,ioos:station:wmo:42046:1,1999-04-02T05:00:00Z,27.8903,-94.0367,2.0,163.4079196,25.56442841,-99999.0,'11111222,11111222,99999999' 
TABS,ioos:station:wmo:42046:1,1999-04-02T05:30:00Z,27.8903,-94.0367,2.0,154.9514388,21.96588264,-99999.0,'11111222,11111222,99999999' 
TABS,ioos:station:wmo:42046:1,1999-04-02T06:00:00Z,27.8903,-94.0367,2.0,156.4475809,25.52645686,-99999.0,'11111222,11111222,99999999' 
TABS,ioos:station:wmo:42046:1,1999-04-02T06:30:00Z,27.8903,-94.0367,2.0,159.3207746,21.80481598,-99999.0,'11111222,11111222,99999999' 
TABS,ioos:station:wmo:42046:1,1999-04-02T07:00:00Z,27.8903,-94.0367,2.0,157.6994317,23.45421071,-99999.0,'11111222,11111222,99999999' 
TABS,ioos:station:wmo:42046:1,1999-04-02T07:30:00Z,27.8903,-94.0367,2.0,174.0529404,14.47791421,-99999.0,'11111222,11111222,99999999' 
TABS,ioos:station:wmo:42046:1,1999-04-02T08:00:00Z,27.8903,-94.0367,2.0,174.5594702,14.76651618,-99999.0,'11111222,11111222,99999999' 
TABS,ioos:station:wmo:42046:1,1999-04-02T08:30:00Z,27.8903,-94.0367,2.0,163.8722514,17.2800463,-99999.0,'11111222,11111222,99999999' 
TABS,ioos:station:wmo:42046:1,1999-04-02T09:00:00Z,27.8903,-94.0367,2.0,181.7147157,16.70748335,-99999.0,'11111222,11111222,99999999' 
TABS,ioos:station:wmo:42046:1,1999-04-02T09:30:00Z,27.8903,-94.0367,2.0,178.1872411,15.80790941,-99999.0,'11111222,11111222,99999999' 
TABS,ioos:station:wmo:42046:1,1999-04-02T10:00:00Z,27.8903,-94.0367,2.0,190.3414107,13.92623424,-99999.0,'11111222,11111222,99999999' 
TABS,ioos:station:wmo:42046:1,1999-04-02T10:30:00Z,27.8903,-94.0367,2.0,159.1282413,14.87615542,-99999.0,'11111222,11111222,99999999' 
TABS,ioos:station:wmo:42046:1,1999-04-02T11:00:00Z,27.8903,-94.0367,2.0,162.9428639,9.204890005,-99999.0,'11133222,11111222,99999999' 
TABS,ioos:station:wmo:42046:1,1999-04-02T11:30:00Z,27.8903,-94.0367,2.0,165.3430727,6.718630813,-99999.0,'11133222,11111222,99999999' 
TABS,ioos:station:wmo:42046:1,1999-04-02T12:00:00Z,27.8903,-94.0367,2.0,173.8843003,5.632051136,-99999.0,'11133222,11111222,99999999' 
TABS,ioos:station:wmo:42046:1,1999-04-02T12:30:00Z,27.8903,-94.0367,2.0,120.9636841,9.912618221,-99999.0,'11133222,11111222,99999999' 
TABS,ioos:station:wmo:42046:1,1999-04-02T13:00:00Z,27.8903,-94.0367,2.0,129.4569156,16.83716128,-99999.0,'11111222,11111222,99999999' 
TABS,ioos:station:wmo:42046:1,1999-04-02T13:30:00Z,27.8903,-94.0367,2.0,58.78167024,7.717512553,-99999.0,'11133222,11111222,99999999' 
TABS,ioos:station:wmo:42046:1,1999-04-02T14:00:00Z,27.8903,-94.0367,2.0,32.00551882,0.943398113,-99999.0,'11133222,11111222,99999999' 
TABS,ioos:station:wmo:42046:1,1999-04-02T14:30:00Z,27.8903,-94.0367,2.0,112.6198121,10.4,-99999.0,'11111222,11111222,99999999' 
TABS,ioos:station:wmo:42046:1,1999-04-02T15:00:00Z,27.8903,-94.0367,2.0,120.8667373,10.13558089,-99999.0,'11111222,11111222,99999999' 
TABS,ioos:station:wmo:42046:1,1999-04-02T15:30:00Z,27.8903,-94.0367,2.0,85.53285138,12.83900308,-99999.0,'11111222,11111222,99999999' 
TABS,ioos:station:wmo:42046:1,1999-04-02T16:00:00Z,27.8903,-94.0367,2.0,25.88717619,15.11687798,-99999.0,'11111222,11111222,99999999' 
TABS,ioos:station:wmo:42046:1,1999-04-02T16:30:00Z,27.8903,-94.0367,2.0,78.91361291,15.08144555,-99999.0,'11111222,11111222,99999999' 
TABS,ioos:station:wmo:42046:1,1999-04-02T17:00:00Z,27.8903,-94.0367,2.0,92.12109144,18.91295852,-99999.0,'11111222,11111222,99999999' 
TABS,ioos:station:wmo:42046:1,1999-04-02T17:30:00Z,27.8903,-94.0367,2.0,87.22979068,18.62176146,-99999.0,'11111222,11111222,99999999' 
TABS,ioos:station:wmo:42046:1,1999-04-02T18:00:00Z,27.8903,-94.0367,2.0,92.73932932,20.92390977,-99999.0,'11111222,11111222,99999999' 
TABS,ioos:station:wmo:42046:1,1999-04-02T18:30:00Z,27.8903,-94.0367,2.0,75.20327236,16.44536409,-99999.0,'11111222,11111222,99999999' 
TABS,ioos:station:wmo:42046:1,1999-04-02T19:00:00Z,27.8903,-94.0367,2.0,92.07002581,24.91625975,-99999.0,'11111222,11111222,99999999' 
TABS,ioos:station:wmo:42046:1,1999-04-02T19:30:00Z,27.8903,-94.0367,2.0,88.50045647,19.10654338,-99999.0,'11111222,11111222,99999999' 
TABS,ioos:station:wmo:42046:1,1999-04-02T20:00:00Z,27.8903,-94.0367,2.0,70.15316355,17.96719232,-99999.0,'11111222,11111222,99999999' 
TABS,ioos:station:wmo:42046:1,1999-04-02T20:30:00Z,27.8903,-94.0367,2.0,90.24910993,23.00021739,-99999.0,'11111222,11111222,99999999' 
TABS,ioos:station:wmo:42046:1,1999-04-02T21:00:00Z,27.8903,-94.0367,2.0,107.2694274,20.21113554,-99999.0,'11111222,11111222,99999999' 
TABS,ioos:station:wmo:42046:1,1999-04-02T21:30:00Z,27.8903,-94.0367,2.0,108.8284908,32.22436966,-99999.0,'11111222,11111222,99999999' 
TABS,ioos:station:wmo:42046:1,1999-04-02T22:00:00Z,27.8903,-94.0367,2.0,104.7542921,27.09335712,-99999.0,'11111222,11111222,99999999' 
TABS,ioos:station:wmo:42046:1,1999-04-02T22:30:00Z,27.8903,-94.0367,2.0,116.7284569,31.34980064,-99999.0,'11111222,11111222,99999999' 
TABS,ioos:station:wmo:42046:1,1999-04-02T23:00:00Z,27.8903,-94.0367,2.0,123.9144563,28.31766233,-99999.0,'11111222,11111222,99999999' 
TABS,ioos:station:wmo:42046:1,1999-04-02T23:30:00Z,27.8903,-94.0367,2.0,122.8449815,28.20957284,-99999.0,'11111222,11111222,99999999' 
TABS,ioos:station:wmo:42046:1,1999-04-03T00:00:00Z,27.8903,-94.0367,2.0,128.8136789,40.68341185,-99999.0,'11111222,11111222,99999999' 
TABS,ioos:station:wmo:42046:1,1999-04-03T00:30:00Z,27.8903,-94.0367,2.0,128.6337334,34.43631804,-99999.0,'11111222,11111222,99999999' 
TABS,ioos:station:wmo:42046:1,1999-04-03T01:00:00Z,27.8903,-94.0367,2.0,136.2234992,36.42430507,-99999.0,'11111222,11111222,99999999' 
TABS,ioos:station:wmo:42046:1,1999-04-03T01:30:00Z,27.8903,-94.0367,2.0,134.9998948,32.52691193,-99999.0,'11111222,11111222,99999999' 
TABS,ioos:station:wmo:42046:1,1999-04-03T02:00:00Z,27.8903,-94.0367,2.0,137.1098327,26.88828741,-99999.0,'11111222,11111222,99999999' 
TABS,ioos:station:wmo:42046:1,1999-04-03T02:30:00Z,27.8903,-94.0367,2.0,151.1483486,24.66110298,-99999.0,'11111222,11111222,99999999' 
TABS,ioos:station:wmo:42046:1,1999-04-03T03:00:00Z,27.8903,-94.0367,2.0,157.401972,20.03846301,-99999.0,'11111222,11111222,99999999' 
TABS,ioos:station:wmo:42046:1,1999-04-03T03:30:00Z,27.8903,-94.0367,2.0,147.7242207,22.47220505,-99999.0,'11111222,11111222,99999999' 
TABS,ioos:station:wmo:42046:1,1999-04-03T04:00:00Z,27.8903,-94.0367,2.0,172.7248016,23.69071548,-99999.0,'11111222,11111222,99999999' 
TABS,ioos:station:wmo:42046:1,1999-04-03T04:30:00Z,27.8903,-94.0367,2.0,166.6253804,29.39727879,-99999.0,'11111222,11111222,99999999' 
TABS,ioos:station:wmo:42046:1,1999-04-03T05:00:00Z,27.8903,-94.0367,2.0,164.6382092,18.87432118,-99999.0,'11111222,11111222,99999999' 
TABS,ioos:station:wmo:42046:1,1999-04-03T05:30:00Z,27.8903,-94.0367,2.0,160.0167297,16.38657988,-99999.0,'11111222,11111222,99999999' 
TABS,ioos:station:wmo:42046:1,1999-04-03T06:00:00Z,27.8903,-94.0367,2.0,184.1846959,12.33288287,-99999.0,'11111222,11111222,99999999' 
TABS,ioos:station:wmo:42046:1,1999-04-03T06:30:00Z,27.8903,-94.0367,2.0,158.0564347,14.98565981,-99999.0,'11111222,11111222,99999999' 
TABS,ioos:station:wmo:42046:1,1999-04-03T07:00:00Z,27.8903,-94.0367,2.0,188.9492267,12.85651586,-99999.0,'11111222,11111222,99999999' 
TABS,ioos:station:wmo:42046:1,1999-04-03T07:30:00Z,27.8903,-94.0367,2.0,175.5326409,12.83900308,-99999.0,'11111222,11111222,99999999' 
TABS,ioos:station:wmo:42046:1,1999-04-03T08:00:00Z,27.8903,-94.0367,2.0,190.264906,12.90658747,-99999.0,'11111222,11111222,99999999' 
TABS,ioos:station:wmo:42046:1,1999-04-03T08:30:00Z,27.8903,-94.0367,2.0,237.2644294,8.321658489,-99999.0,'11133222,11111222,99999999' 
TABS,ioos:station:wmo:42046:1,1999-04-03T09:00:00Z,27.8903,-94.0367,2.0,179.9997895,12.9,-99999.0,'11111222,11111222,99999999' 
TABS,ioos:station:wmo:42046:1,1999-04-03T09:30:00Z,27.8903,-94.0367,2.0,241.6162913,14.0943251,-99999.0,'11111222,11111222,99999999' 
TABS,ioos:station:wmo:42046:1,1999-04-03T10:00:00Z,27.8903,-94.0367,2.0,216.6338178,4.860041152,-99999.0,'11133222,11111222,99999999' 
TABS,ioos:station:wmo:42046:1,1999-04-03T10:30:00Z,27.8903,-94.0367,2.0,214.1141827,11.23298714,-99999.0,'11111222,11111222,99999999' 
TABS,ioos:station:wmo:42046:1,1999-04-03T11:00:00Z,27.8903,-94.0367,2.0,146.0935918,7.34982993,-99999.0,'11133222,11111222,99999999' 
TABS,ioos:station:wmo:42046:1,1999-04-03T11:30:00Z,27.8903,-94.0367,2.0,297.7588966,6.441273166,-99999.0,'11133222,11111222,99999999' 
TABS,ioos:station:wmo:42046:1,1999-04-03T12:00:00Z,27.8903,-94.0367,2.0,325.4210037,12.509996,-99999.0,'11111222,11111222,99999999' 
TABS,ioos:station:wmo:42046:1,1999-04-03T12:30:00Z,27.8903,-94.0367,2.0,63.43501094,1.565247584,-99999.0,'11133222,11111222,99999999' 
TABS,ioos:station:wmo:42046:1,1999-04-03T13:00:00Z,27.8903,-94.0367,2.0,0.895382076,6.400781202,-99999.0,'11133222,11111222,99999999' 
TABS,ioos:station:wmo:42046:1,1999-04-03T13:30:00Z,27.8903,-94.0367,2.0,355.073112,5.821511831,-99999.0,'11133222,11111222,99999999' 
TABS,ioos:station:wmo:42046:1,1999-04-03T14:00:00Z,27.8903,-94.0367,2.0,45.66630364,12.16305883,-99999.0,'11111222,11111222,99999999' 
TABS,ioos:station:wmo:42046:1,1999-04-03T14:30:00Z,27.8903,-94.0367,2.0,47.81565533,4.318564576,-99999.0,'11133222,11111222,99999999' 
TABS,ioos:station:wmo:42046:1,1999-04-03T15:00:00Z,27.8903,-94.0367,2.0,31.05440896,10.85587399,-99999.0,'11111222,11111222,99999999' 
TABS,ioos:station:wmo:42046:1,1999-04-03T15:30:00Z,27.8903,-94.0367,2.0,51.43482933,9.464142856,-99999.0,'11133222,11111222,99999999' 
TABS,ioos:station:wmo:42046:1,1999-04-03T16:00:00Z,27.8903,-94.0367,2.0,36.44456699,16.16044554,-99999.0,'11111222,11111222,99999999' 
TABS,ioos:station:wmo:42046:1,1999-04-03T16:30:00Z,27.8903,-94.0367,2.0,53.53085089,20.0204895,-99999.0,'11111222,11111222,99999999' 
TABS,ioos:station:wmo:42046:1,1999-04-03T17:00:00Z,27.8903,-94.0367,2.0,59.0978579,15.96652749,-99999.0,'11111222,11111222,99999999' 
TABS,ioos:station:wmo:42046:1,1999-04-03T17:30:00Z,27.8903,-94.0367,2.0,55.84038533,13.53513945,-99999.0,'11111222,11111222,99999999' 
TABS,ioos:station:wmo:42046:1,1999-04-03T18:00:00Z,27.8903,-94.0367,2.0,71.56509429,17.39252713,-99999.0,'11111222,11111222,99999999' 
TABS,ioos:station:wmo:42046:1,1999-04-03T18:30:00Z,27.8903,-94.0367,2.0,83.46787859,26.37119641,-99999.0,'11111222,11111222,99999999' 
TABS,ioos:station:wmo:42046:1,1999-04-03T19:00:00Z,27.8903,-94.0367,2.0,89.43645445,30.50147537,-99999.0,'11111222,11111222,99999999' 
TABS,ioos:station:wmo:42046:1,1999-04-03T19:30:00Z,27.8903,-94.0367,2.0,87.17288203,24.32961159,-99999.0,'11111222,11111222,99999999' 
TABS,ioos:station:wmo:42046:1,1999-04-03T20:00:00Z,27.8903,-94.0367,2.0,91.26833106,27.10664125,-99999.0,'11111222,11111222,99999999' 
TABS,ioos:station:wmo:42046:1,1999-04-03T20:30:00Z,27.8903,-94.0367,2.0,78.53049649,28.16238626,-99999.0,'11111222,11111222,99999999' 
TABS,ioos:station:wmo:42046:1,1999-04-03T21:00:00Z,27.8903,-94.0367,2.0,102.3232846,33.26649967,-99999.0,'11111222,11111222,99999999' 
TABS,ioos:station:wmo:42046:1,1999-04-03T22:30:00Z,27.8903,-94.0367,2.0,107.2849651,34.66554485,-99999.0,'11111222,11111222,99999999' 
TABS,ioos:station:wmo:42046:1,1999-04-03T23:00:00Z,27.8903,-94.0367,2.0,91.50743223,30.41052449,-99999.0,'11111222,11111222,99999999' 
TABS,ioos:station:wmo:42046:1,1999-04-03T23:30:00Z,27.8903,-94.0367,2.0,114.6403671,38.61631779,-99999.0,'11111222,11111222,99999999' 
TABS,ioos:station:wmo:42046:1,1999-04-04T00:00:00Z,27.8903,-94.0367,2.0,119.8090445,33.19171583,-99999.0,'11111222,11111222,99999999' 
TABS,ioos:station:wmo:42046:1,1999-04-04T00:30:00Z,27.8903,-94.0367,2.0,118.0724213,17.0,-99999.0,'11111222,11111222,99999999' 
TABS,ioos:station:wmo:42046:1,1999-04-04T01:00:00Z,27.8903,-94.0367,2.0,134.7119794,14.07160261,-99999.0,'11111222,11111222,99999999' 
TABS,ioos:station:wmo:42046:1,1999-04-04T01:30:00Z,27.8903,-94.0367,2.0,123.5983891,34.69654161,-99999.0,'11111222,11111222,99999999' 
TABS,ioos:station:wmo:42046:1,1999-04-04T02:00:00Z,27.8903,-94.0367,2.0,116.9495178,33.31816321,-99999.0,'11111222,11111222,99999999' 
TABS,ioos:station:wmo:42046:1,1999-04-04T02:30:00Z,27.8903,-94.0367,2.0,119.6784205,32.11261434,-99999.0,'11111222,11111222,99999999' 
TABS,ioos:station:wmo:42046:1,1999-04-04T03:00:00Z,27.8903,-94.0367,2.0,131.0352493,21.47673159,-99999.0,'11111222,11111222,99999999' 
TABS,ioos:station:wmo:42046:1,1999-04-04T03:30:00Z,27.8903,-94.0367,2.0,133.1117112,32.19083721,-99999.0,'11111222,11111222,99999999' 
TABS,ioos:station:wmo:42046:1,1999-04-04T04:00:00Z,27.8903,-94.0367,2.0,121.7462101,35.16048919,-99999.0,'11111222,11111222,99999999' 
TABS,ioos:station:wmo:42046:1,1999-04-04T04:30:00Z,27.8903,-94.0367,2.0,126.2824582,21.46112765,-99999.0,'11111222,11111222,99999999' 
TABS,ioos:station:wmo:42046:1,1999-04-04T05:00:00Z,27.8903,-94.0367,2.0,143.7957465,30.9820916,-99999.0,'11111222,11111222,99999999' 
TABS,ioos:station:wmo:42046:1,1999-04-04T05:30:00Z,27.8903,-94.0367,2.0,156.8733232,20.87773934,-99999.0,'11111222,11111222,99999999' 
TABS,ioos:station:wmo:42046:1,1999-04-04T06:00:00Z,27.8903,-94.0367,2.0,141.2065934,26.81510768,-99999.0,'11111222,11111222,99999999' 
TABS,ioos:station:wmo:42046:1,1999-04-04T06:30:00Z,27.8903,-94.0367,2.0,138.6912721,17.57270611,-99999.0,'11111222,11111222,99999999' 
TABS,ioos:station:wmo:42046:1,1999-04-04T07:00:00Z,27.8903,-94.0367,2.0,146.0764186,27.23600558,-99999.0,'11111222,11111222,99999999' 
TABS,ioos:station:wmo:42046:1,1999-04-04T07:30:00Z,27.8903,-94.0367,2.0,152.140204,23.75310506,-99999.0,'11111222,11111222,99999999' 
TABS,ioos:station:wmo:42046:1,1999-04-04T08:00:00Z,27.8903,-94.0367,2.0,150.134609,29.52033198,-99999.0,'11111222,11111222,99999999' 
TABS,ioos:station:wmo:42046:1,1999-04-04T08:30:00Z,27.8903,-94.0367,2.0,167.5498221,23.6562888,-99999.0,'11111222,11111222,99999999' 
TABS,ioos:station:wmo:42046:1,1999-04-04T09:00:00Z,27.8903,-94.0367,2.0,158.7398977,31.43962468,-99999.0,'11111222,11111222,99999999' 
TABS,ioos:station:wmo:42046:1,1999-04-04T09:30:00Z,27.8903,-94.0367,2.0,152.772999,27.10295187,-99999.0,'11111222,11111222,99999999' 
TABS,ioos:station:wmo:42046:1,1999-04-04T10:00:00Z,27.8903,-94.0367,2.0,137.5151407,27.39142201,-99999.0,'11111222,11111222,99999999' 
TABS,ioos:station:wmo:42046:1,1999-04-04T10:30:00Z,27.8903,-94.0367,2.0,154.0492074,16.68202626,-99999.0,'11111222,11111222,99999999' 
TABS,ioos:station:wmo:42046:1,1999-04-04T11:00:00Z,27.8903,-94.0367,2.0,165.8327671,21.24617613,-99999.0,'11111222,11111222,99999999' 
TABS,ioos:station:wmo:42046:1,1999-04-04T11:30:00Z,27.8903,-94.0367,2.0,150.2549778,22.5743217,-99999.0,'11111222,11111222,99999999' 
TABS,ioos:station:wmo:42046:1,1999-04-04T12:00:00Z,27.8903,-94.0367,2.0,168.9060925,20.78845834,-99999.0,'11111222,11111222,99999999' 
TABS,ioos:station:wmo:42046:1,1999-04-04T12:30:00Z,27.8903,-94.0367,2.0,194.4700498,9.604686356,-99999.0,'11133222,11111222,99999999' 
TABS,ioos:station:wmo:42046:1,1999-04-04T13:00:00Z,27.8903,-94.0367,2.0,158.198431,11.84736258,-99999.0,'11111222,11111222,99999999' 
TABS,ioos:station:wmo:42046:1,1999-04-04T13:30:00Z,27.8903,-94.0367,2.0,220.5388465,10.00049999,-99999.0,'11111222,11111222,99999999' 
TABS,ioos:station:wmo:42046:1,1999-04-04T14:00:00Z,27.8903,-94.0367,2.0,212.4709059,7.823042886,-99999.0,'11133222,11111222,99999999' 
TABS,ioos:station:wmo:42046:1,1999-04-04T14:30:00Z,27.8903,-94.0367,2.0,192.4172063,11.16109314,-99999.0,'11111222,11111222,99999999' 
TABS,ioos:station:wmo:42046:1,1999-04-04T15:00:00Z,27.8903,-94.0367,2.0,141.2097064,13.7277092,-99999.0,'11111222,11111222,99999999' 
TABS,ioos:station:wmo:42046:1,1999-04-04T15:30:00Z,27.8903,-94.0367,2.0,196.3357942,6.044005295,-99999.0,'11133222,11111222,99999999' 
TABS,ioos:station:wmo:42046:1,1999-04-04T16:00:00Z,27.8903,-94.0367,2.0,198.0602192,9.676776323,-99999.0,'11133222,11111222,99999999' 
TABS,ioos:station:wmo:42046:1,1999-04-04T16:30:00Z,27.8903,-94.0367,2.0,231.8424417,3.560898763,-99999.0,'11133222,11111222,99999999' 
TABS,ioos:station:wmo:42046:1,1999-04-04T17:00:00Z,27.8903,-94.0367,2.0,156.7321391,10.8853112,-99999.0,'11111222,11111222,99999999' 